RH
42 61 73 81 100 94 85 68 76 74 87 98 100 75 43 54 41 41 46 52 100 93 85 88 89 59 51 100 98 85 90 56 50 48 40 34 30 29 26 24 25 28 30 27 25 18 13 15 13 13 14 13 13 14
34 41 54 62 93 100 98 66 100 100 98 98 97 98 68 72 49 37 51 42 52 56 94 100 94 99 95 100 99 80 95 97 56 46 39 39 35 30 27 27 27 26 30 30 24 21 19 18 20 18 17 18 16 14
51 35 42 51 63 84 75 97 100 100 100 100 100 100 98 90 50 49 37 40 43 36 39 68 75 100 100 100 100 99 92 70 56 41 39 40 33 28 23 24 29 27 30 25 26 22 25 25 22 21 18 19 21 20
75 37 43 40 47 57 100 88 98 100 100 100 97 100 100 100 95 80 62 44 33 33 36 40 45 76 96 99 99 74 56 40 34 33 35 34 30 24 22 23 21 23 22 22 20 22 32 28 26 26 25 24 25 25
87 47 58 52 44 40 80 96 98 100 100 100 100 99 100 98 100 100 76 53 41 42 32 27 30 32 35 39 34 31 29 27 28 29 26 25 22 23 20 18 12 14 21 22 18 24 26 25 30 28 29 34 33 30
93 71 47 50 60 46 52 83 96 100 100 100 100 89 100 100 99 97 78 60 50 43 35 29 26 25 23 24 26 25 23 24 24 24 22 19 18 21 18 14 12 13 14 20 18 19 18 16 17 25 28 33 35 35
86 90 83 44 49 40 42 70 98 100 100 100 100 100 98 98 100 100 80 66 63 50 40 38 31 27 24 23 23 23 22 22 20 20 18 18 18 19 15 11 12 13 18 16 18 17 18 18 22 32 37 45 45 44
74 67 56 35 29 31 34 64 93 99 100 100 100 98 90 99 100 100 100 95 89 65 53 45 34 29 28 26 25 25 26 26 25 23 20 20 21 19 15 14 18 19 22 20 24 19 15 19 25 48 54 56 51 44
99 100 100 100 82 23 19 60 95 94 100 100 100 100 100 100 100 98 100 100 100 90 71 51 40 38 41 37 35 37 36 36 34 32 32 34 32 24 32 45 37 37 28 24 29 28 22 19 29 52 79 66 57 47
100 100 99 95 99 44 19 66 80 100 100 100 100 100 100 100 100 100 94 95 100 87 80 77 63 52 50 53 52 47 46 48 38 37 40 40 41 47 47 46 44 42 40 41 40 41 48 37 39 49 77 85 76 64
100 100 100 100 62 33 20 51 68 98 99 100 100 100 100 100 100 100 100 100 99 93 74 66 64 62 58 50 48 47 42 38 36 35 35 31 27 19 15 13 14 17 19 22 26 31 36 36 37 47 52 62 65 51
100 100 100 98 76 41 32 35 43 96 99 98 95 100 77 92 100 100 100 99 99 82 62 62 56 48 40 34 34 33 31 32 28 24 22 16 17 16 14 12 9 8 7 7 15 21 26 29 31 35 38 52 58 63
100 100 100 100 100 100 99 80 63 65 97 100 100 100 97 95 100 100 98 95 79 53 50 58 49 42 52 47 43 42 42 34 28 26 21 18 20 17 14 11 10 10 9 8 7 26 34 40 46 48 50 71 71 67
100 100 100 100 100 98 98 100 79 99 100 70 98 97 100 100 72 60 83 53 26 52 59 66 65 58 60 66 59 59 50 43 37 22 18 26 22 15 11 10 9 9 8 10 11 22 47 50 58 69 69 67 63 52
100 100 100 100 100 100 100 100 100 100 100 100 67 92 98 72 80 66 67 68 86 100 91 86 91 88 84 78 80 74 63 47 24 20 29 28 22 16 14 12 11 13 10 11 18 41 53 68 66 62 64 74 77 83
100 100 100 100 100 100 100 100 100 100 100 100 100 97 92 96 95 82 88 100 100 100 98 97 100 100 94 81 67 56 43 30 36 38 46 43 29 24 24 21 21 21 16 14 26 65 93 98 100 100 100 100 100 100
100 100 100 100 100 100 100 100 100 100 100 100 100 94 87 98 100 100 100 100 100 100 100 100 94 97 91 88 71 56 41 49 62 58 49 38 37 36 31 25 22 18 19 24 57 94 100 100 100 100 100 100 100 90
100 100 100 100 100 100 100 100 100 100 100 100 100 99 93 100 100 100 100 100 100 100 98 97 86 77 60 38 25 37 67 74 66 59 55 49 45 36 28 24 36 98 100 100 100 100 100 100 97 92 100 98 82 65
100 100 100 100 100 93 81 88 87 86 85 91 99 100 100 99 100 99 97 93 90 86 82 69 55 38 35 52 65 67 68 62 63 72 67 51 40 32 33 38 65 95 97 100 100 100 100 100 99 100 100 74 62 44
100 100 89 93 88 73 62 53 64 72 75 87 88 99 99 100 96 89 76 65 59 51 40 25 22 34 53 66 71 76 67 79 90 83 60 62 61 59 60 60 57 95 100 100 100 100 100 100 93 90 68 40 28 24
100 100 95 93 86 79 72 80 81 93 100 100 100 100 96 88 71 65 63 53 41 31 27 32 41 49 100 100 100 100 87 49 43 43 51 50 47 41 60 84 96 100 100 100 100 100 100 89 69 48 40 38 37 38
89 86 73 77 96 98 97 97 100 100 100 99 86 68 54 44 48 48 40 25 26 27 21 15 17 42 52 55 83 98 90 88 59 53 78 58 54 87 93 100 98 87 82 82 94 93 77 57 53 53 56 63 70 67
100 100 87 87 84 79 82 87 100 99 92 77 58 56 58 53 42 34 27 26 29 51 46 27 33 56 68 74 71 87 85 52 53 93 94 73 78 84 88 88 78 66 63 68 73 74 64 59 69 77 77 79 82 72
79 76 77 83 86 87 83 86 91 84 72 67 67 57 37 28 26 25 28 54 77 70 49 43 45 36 38 50 50 52 83 100 94 74 57 58 57 62 63 63 61 61 60 52 52 56 71 89 97 86 74 63 64 68
96 87 84 74 68 68 68 71 75 70 67 49 32 28 35 32 35 29 42 96 97 65 35 31 35 43 52 59 66 76 86 59 48 33 31 31 47 67 65 59 70 80 75 80 90 98 100 100 92 76 66 59 61 73
98 91 81 70 55 50 39 36 44 48 54 51 35 35 41 49 58 48 76 96 70 53 42 37 35 52 52 45 42 39 36 48 56 45 56 54 67 96 99 85 90 100 100 100 100 100 100 92 87 79 83 89 91 87
86 82 91 89 73 46 44 49 52 61 60 51 56 68 67 62 52 55 79 70 64 48 46 55 41 37 46 52 53 52 52 58 63 60 67 77 94 85 88 94 95 98 91 95 100 97 91 90 89 90 100 100 100 99
50 58 58 54 48 43 44 45 51 55 50 48 54 58 60 63 78 83 73 60 56 49 48 68 84 70 60 54 48 44 48 54 64 71 75 90 100 96 95 98 100 100 100 100 100 100 100 100 100 100 100 100 94 75
38 50 62 70 67 59 51 56 56 53 46 52 64 78 86 75 82 82 62 61 71 62 60 69 68 60 57 53 56 67 62 58 64 79 100 100 95 93 96 100 100 100 100 100 100 100 100 100 100 100 99 87 88 96
62 60 54 54 54 51 48 50 56 67 79 72 72 67 48 50 59 60 46 50 68 69 81 71 60 51 48 54 70 91 86 78 93 100 100 97 95 99 97 92 95 100 100 100 100 99 100 100 100 86 64 84 100 100
74 75 75 76 61 54 72 77 71 78 80 60 63 59 63 56 48 45 42 42 50 81 77 70 60 51 58 74 90 97 97 91 93 98 100 100 100 100 99 100 100 100 100 96 83 89 93 76 61 51 62 92 100 100
61 65 72 78 89 93 97 100 98 78 80 81 80 67 49 52 61 66 69 62 44 36 59 60 54 67 80 93 100 100 100 100 100 100 100 100 100 99 99 99 95 84 63 58 72 73 55 49 53 53 67 92 100 100
99 100 100 99 99 99 87 77 76 78 67 55 55 54 56 68 71 74 93 100 91 66 54 64 69 78 82 85 95 98 98 95 85 71 61 56 58 68 93 100 100 98 84 64 53 50 52 52 61 65 70 94 100 100
Wind_Speed
47 48 48 63 43 50 56 76 81 80 77 69 65 68 72 70 73 72 75 80 71 62 60 66 67 63 62 58 50 49 47 47 47 48 50 51 51 48 46 45 42 39 37 35 35 37 37 34 36 34 30 31 33 34
45 49 50 50 55 49 44 70 88 75 83 74 69 67 70 69 71 71 75 79 81 73 77 64 60 57 64 66 58 62 55 49 49 51 51 51 51 51 49 48 44 43 39 39 40 40 40 40 38 39 39 35 36 37
41 50 53 52 51 54 46 64 88 89 65 68 65 63 61 61 65 71 73 73 75 74 75 71 68 71 66 60 56 56 53 52 50 51 53 53 54 54 53 51 48 45 45 46 46 42 42 43 43 43 44 44 42 39
44 48 49 54 57 56 50 63 83 94 68 75 70 67 54 57 56 59 63 65 66 67 70 72 72 73 71 66 63 60 54 53 51 52 54 55 54 55 55 53 50 49 49 48 49 45 46 46 47 47 47 47 45 44
44 46 48 51 56 62 56 50 68 78 69 76 78 64 61 54 57 56 59 59 60 64 63 64 66 67 67 66 60 57 56 55 53 52 53 54 55 54 54 54 51 52 51 52 51 50 51 50 49 51 50 49 49 49
40 47 45 48 49 59 60 51 57 96 69 68 77 63 64 57 53 56 60 60 58 56 56 58 60 60 61 59 56 55 53 50 50 51 52 52 53 55 57 55 52 54 55 54 54 55 56 57 56 56 54 52 51 50
35 41 45 48 50 59 64 60 55 80 66 64 72 64 59 56 53 49 48 49 52 50 49 51 54 55 55 55 55 53 52 53 54 54 53 53 53 55 56 56 54 56 54 55 57 58 59 59 58 57 54 52 50 48
26 28 35 45 54 57 70 63 58 78 70 57 69 72 55 54 61 51 47 44 44 45 44 48 47 48 50 51 53 52 53 55 56 56 55 57 59 60 62 58 57 58 59 59 58 63 66 63 60 57 55 53 51 52
25 25 28 30 37 54 64 71 59 79 81 67 57 65 69 64 57 46 42 40 42 42 42 40 40 43 45 46 48 49 51 51 51 51 53 55 57 59 52 52 55 58 63 62 62 65 67 65 62 56 53 54 53 53
13 20 32 38 41 53 68 70 62 76 88 66 57 61 61 58 47 46 45 45 43 39 35 32 33 37 38 38 39 38 37 37 38 40 42 43 40 36 38 37 44 49 55 59 62 62 62 64 63 59 54 52 51 50
13 13 17 27 44 55 70 78 64 69 72 68 67 66 64 55 51 52 52 50 48 39 34 29 28 30 28 27 26 27 28 28 26 24 26 24 23 22 22 26 29 33 39 44 48 52 57 60 62 61 58 55 54 53
18 28 28 34 48 57 70 69 64 69 70 67 61 65 53 57 60 63 59 55 50 43 34 31 32 31 28 28 29 26 25 23 24 24 22 18 19 25 31 35 39 42 44 45 45 46 49 51 54 57 54 53 54 52
28 38 36 33 41 44 51 60 68 70 69 60 67 63 56 59 61 58 62 49 39 35 35 33 34 33 33 32 30 29 27 26 24 21 21 25 27 34 38 39 38 40 43 47 47 47 49 50 51 51 52 51 46 44
26 46 45 40 40 59 63 65 62 70 72 70 70 68 69 66 64 52 51 41 36 43 41 38 34 28 30 33 33 32 30 27 27 28 30 30 33 34 34 36 37 38 41 44 46 47 47 47 45 44 42 42 41 42
32 37 44 37 38 50 66 61 66 64 68 68 67 62 65 53 54 54 48 51 51 50 44 38 40 35 36 37 37 35 33 33 31 30 32 34 36 38 43 43 38 40 41 41 39 39 43 41 39 40 41 41 41 39
40 42 43 44 42 48 50 53 55 49 58 60 61 54 40 42 52 55 49 53 54 48 34 36 40 38 42 42 37 37 35 33 36 33 39 40 42 43 46 48 47 48 52 45 40 40 41 41 34 30 29 28 28 29
39 46 43 39 35 39 41 40 42 42 41 41 47 43 36 42 50 53 49 49 48 45 41 35 34 38 40 40 39 43 44 35 37 41 44 49 49 51 49 48 50 60 51 40 42 41 38 34 26 22 22 24 24 24
39 42 41 39 38 37 40 41 44 45 41 40 45 41 38 37 39 42 41 42 41 36 37 40 41 42 43 43 42 42 39 42 47 48 48 49 48 40 42 41 40 44 43 42 42 35 30 25 21 21 22 22 23 24
44 43 43 45 45 41 36 36 41 41 39 34 32 31 29 30 32 32 31 31 34 38 40 42 44 43 43 46 47 48 47 47 46 44 43 42 41 37 36 37 40 40 42 38 37 32 27 23 22 22 21 22 24 25
49 47 47 49 45 39 34 31 34 33 33 32 32 32 32 33 35 35 36 38 42 44 46 45 46 48 47 44 44 47 45 44 46 44 41 40 38 35 33 36 37 33 28 32 35 30 25 24 22 22 22 23 24 23
48 43 43 43 44 44 42 39 37 36 32 31 31 34 34 33 33 34 37 40 44 49 52 50 50 47 33 28 31 37 36 34 36 35 35 40 42 39 37 35 31 29 25 25 29 29 27 24 23 23 21 20 20 20
53 52 49 46 43 40 40 39 35 32 28 28 30 32 34 34 35 35 36 42 52 52 39 30 30 31 32 40 46 46 41 37 36 39 27 24 27 29 28 26 29 30 28 27 26 22 19 19 18 17 17 19 19 20
47 45 46 46 45 45 41 38 31 25 23 27 28 30 31 28 29 35 41 37 19 11 13 13 16 19 18 19 27 30 27 29 31 25 20 22 25 26 26 26 25 27 31 28 25 18 17 17 17 20 22 23 21 20
41 38 40 42 44 39 38 33 32 29 29 30 29 24 23 21 18 13 8 8 10 14 16 16 17 14 13 15 15 17 19 23 20 20 23 24 22 22 23 20 22 25 27 24 21 20 21 22 24 25 26 25 24 25
35 37 33 34 38 35 35 30 33 31 29 27 24 20 16 14 11 10 6 8 12 11 10 11 10 10 11 16 17 18 21 19 21 23 21 22 20 18 20 21 22 23 23 23 24 22 21 23 26 25 23 23 25 26
28 27 27 28 30 30 37 38 34 28 23 23 23 20 18 18 16 9 7 12 11 13 18 16 11 9 11 14 15 17 20 18 16 15 19 21 22 19 17 20 18 15 16 17 19 22 25 26 26 26 23 22 24 25
26 28 29 33 33 31 28 26 28 27 21 19 18 18 21 21 18 13 16 17 18 16 13 14 9 8 10 10 10 14 17 18 18 17 18 18 20 20 19 19 18 17 18 19 20 22 24 23 20 19 20 22 23 21
29 30 27 24 21 23 23 23 24 26 27 22 20 17 15 14 12 14 17 18 20 19 16 18 18 18 16 14 14 18 21 22 20 19 19 17 14 11 11 11 12 14 16 17 17 16 16 16 18 20 22 21 18 18
23 24 24 22 21 23 20 19 19 20 21 21 19 18 16 14 15 15 16 17 19 20 19 20 17 15 15 17 19 20 22 21 18 17 15 15 12 11 11 12 12 12 12 12 10 10 12 16 20 21 19 16 17 17
25 23 19 18 18 19 18 18 19 18 17 19 21 20 20 18 20 21 20 18 18 21 18 10 13 16 17 15 13 14 14 13 12 10 11 15 15 16 18 19 19 20 17 16 15 15 17 19 19 17 18 17 17 17
23 25 24 23 22 20 15 14 18 18 18 19 21 22 22 21 19 20 22 23 20 26 26 18 18 16 13 13 13 14 15 15 17 19 19 18 18 19 19 18 18 19 18 18 19 19 18 19 20 20 18 18 17 17
25 23 24 24 23 23 23 21 14 19 20 19 21 22 20 18 16 18 20 23 24 26 30 25 23 19 15 14 16 15 14 14 15 14 13 13 14 15 15 16 17 18 20 21 21 21 20 19 18 17 18 19 19 19
27 22 19 19 18 17 19 23 25 23 23 21 20 22 21 21 19 16 17 16 17 16 18 20 19 19 17 17 17 16 16 17 16 15 15 16 16 16 16 16 18 19 19 20 22 20 18 17 17 18 20 21 21 21
Wind_Direction
211 212 213 215 209 206 205 205 195 195 201 204 205 205 206 202 213 212 214 211 214 215 219 224 226 226 228 227 231 233 234 237 241 241 241 244 247 247 248 251 255 256 259 261 267 268 269 272 272 278 276 275 277 278
214 213 211 217 214 205 204 203 196 192 198 196 199 204 207 205 209 211 214 216 222 221 218 215 220 227 226 230 236 236 239 238 243 244 244 246 249 251 250 252 255 259 263 262 261 265 267 270 273 274 276 278 276 278
217 212 211 213 215 215 212 198 199 195 180 190 192 190 204 205 206 208 215 217 219 219 225 230 226 223 224 228 232 236 239 246 245 247 248 247 248 251 254 255 257 257 261 262 262 264 267 267 269 271 273 276 280 282
212 210 210 209 212 214 207 200 203 186 182 189 194 187 193 200 207 211 213 217 220 221 223 225 226 231 236 239 242 245 245 244 243 244 247 249 250 250 253 255 258 261 263 265 268 271 271 271 274 277 279 280 281 282
210 209 208 206 209 212 209 210 201 185 187 192 187 183 191 194 203 206 209 216 218 219 223 227 229 233 237 240 243 245 244 245 246 246 247 250 252 254 254 255 257 261 264 267 269 271 273 274 275 276 278 277 278 280
208 207 208 208 205 209 210 207 203 180 171 177 181 185 185 192 203 208 209 212 216 221 224 227 231 234 238 240 243 244 245 246 247 249 250 252 253 255 257 258 260 264 266 268 270 271 273 274 275 275 275 276 278 279
203 205 208 208 203 208 210 205 202 189 165 169 174 179 188 196 201 204 213 217 219 221 219 222 225 229 234 239 242 243 245 248 250 250 253 256 256 257 261 264 267 267 267 268 268 270 270 272 273 276 277 277 277 277
188 193 201 205 202 202 208 202 197 192 171 171 175 185 186 192 205 201 199 203 213 216 221 225 232 232 233 236 238 240 242 245 247 250 253 255 257 259 265 270 268 267 265 264 266 267 270 271 273 275 275 276 276 276
190 197 201 211 209 201 198 196 193 182 180 171 174 183 194 196 197 197 213 210 211 216 218 220 222 227 231 232 235 239 242 245 247 251 253 255 259 265 269 264 263 263 265 265 264 265 267 268 270 272 271 270 271 272
195 203 197 192 200 194 185 183 190 187 182 177 178 184 191 194 200 202 203 205 206 211 212 217 224 225 229 233 236 239 242 245 250 254 257 261 266 271 270 273 274 273 272 271 269 268 269 269 271 272 271 272 274 273
183 178 171 181 178 177 180 181 180 186 183 180 180 188 190 193 197 201 206 201 200 208 211 212 203 203 208 215 219 229 238 245 249 247 254 261 268 267 281 285 284 282 281 279 277 275 274 273 274 275 274 274 274 273
137 143 155 157 149 159 165 173 180 181 178 177 180 186 190 194 202 209 214 206 202 208 209 207 202 205 213 220 223 228 233 236 242 246 253 267 288 294 292 293 293 290 292 292 280 274 272 271 271 272 273 272 272 270
138 147 150 156 147 152 159 159 171 185 179 179 184 195 194 201 206 211 206 202 205 206 209 217 216 217 219 220 223 225 234 241 248 254 277 286 285 284 288 290 291 292 293 294 284 271 265 263 264 265 264 266 268 267
143 148 151 154 159 159 160 168 169 175 181 189 195 197 203 208 203 207 207 215 216 220 217 216 214 226 230 228 229 234 238 245 256 272 284 280 283 284 287 286 285 281 292 289 288 273 267 261 263 264 267 265 265 268
152 146 144 146 146 157 169 165 171 179 184 187 196 204 206 205 206 210 217 219 222 218 216 221 223 227 225 227 232 237 242 251 269 282 277 270 273 277 278 282 281 300 282 296 283 273 267 263 258 260 260 262 264 267
154 155 147 151 149 148 156 167 173 172 181 188 193 197 197 209 214 216 218 217 215 214 216 225 229 232 228 232 238 246 256 267 281 271 265 269 269 274 281 283 286 289 296 294 276 263 257 256 260 262 265 266 260 257
154 158 155 153 157 156 163 169 172 174 182 195 196 200 211 214 218 214 214 211 210 213 224 238 241 241 238 241 254 263 270 276 262 261 264 270 275 278 282 292 297 292 281 277 265 260 265 264 259 258 258 257 260 264
144 145 148 154 159 157 160 160 170 176 179 184 195 202 203 207 216 216 211 211 215 221 232 237 242 245 252 261 269 271 266 260 265 268 267 270 274 273 279 278 267 254 253 257 260 259 263 263 261 266 265 265 269 272
155 153 154 155 160 163 171 168 172 173 176 177 182 189 197 203 208 212 224 232 237 239 241 246 252 260 265 264 262 261 260 262 259 259 261 263 269 274 270 262 261 257 258 264 264 262 263 265 270 272 274 275 275 275
161 165 171 171 172 177 181 181 182 183 189 196 202 208 212 217 222 230 239 245 250 253 256 260 268 270 262 257 255 255 257 254 252 248 247 258 261 269 270 264 263 265 276 270 267 269 267 265 271 276 275 273 274 275
169 174 181 178 182 187 189 192 196 198 201 207 212 217 225 233 244 252 257 262 271 278 280 283 280 278 247 223 223 230 232 245 260 269 276 263 253 264 265 260 263 261 266 269 269 272 271 275 277 275 277 275 274 272
181 184 190 191 191 192 195 198 199 202 209 218 227 234 242 250 260 270 279 283 278 278 281 279 274 268 253 244 241 242 244 254 267 275 270 257 251 258 255 259 259 257 263 270 272 282 280 276 275 272 265 265 269 274
192 191 193 196 199 200 202 206 207 210 209 229 242 249 255 262 271 278 275 275 263 279 264 245 223 222 239 249 233 228 240 251 260 252 249 256 259 259 262 266 272 271 268 273 271 270 269 258 252 255 258 261 262 269
204 213 215 214 211 213 215 217 218 224 233 240 244 232 233 241 246 245 244 270 270 259 243 222 221 230 241 245 245 243 241 248 243 245 257 266 265 259 255 250 265 270 267 266 262 252 255 256 262 263 262 266 267 268
191 196 206 214 223 224 224 225 221 217 198 194 195 190 201 214 228 239 231 268 263 260 240 222 239 253 246 239 233 233 246 258 257 254 261 265 262 265 261 255 256 255 255 259 255 254 261 263 265 271 271 267 268 269
178 182 184 184 180 180 175 176 180 181 184 188 193 205 216 228 241 256 229 254 240 263 256 249 239 247 227 226 230 242 251 247 242 259 251 252 266 269 260 253 253 254 255 252 254 256 258 262 264 261 265 266 266 271
166 163 164 166 168 170 174 179 184 188 191 191 199 214 227 240 261 257 246 247 250 277 255 230 233 240 241 242 237 242 256 267 263 255 262 270 265 253 250 252 253 249 256 259 264 266 264 269 265 257 257 266 268 268
161 159 162 167 174 184 189 190 188 196 201 206 214 217 225 225 226 233 241 252 271 277 243 224 225 234 238 247 256 260 257 261 268 273 272 263 253 254 251 240 248 254 258 258 257 257 255 253 255 256 266 263 262 271
182 181 186 191 195 198 198 200 201 201 200 202 211 224 237 230 238 243 243 248 268 264 233 226 242 252 248 257 270 276 271 271 270 261 255 246 249 259 268 270 263 262 259 252 255 263 261 259 261 258 256 255 264 264
215 219 219 217 216 214 211 204 205 212 221 228 233 235 245 251 256 257 258 260 259 247 212 233 240 241 250 263 279 272 264 253 230 246 268 262 259 260 259 254 253 254 262 260 262 268 266 266 251 262 259 255 260 255
201 211 215 212 215 214 217 237 227 224 228 233 238 244 254 263 265 263 264 262 257 235 227 255 264 243 255 272 276 266 250 241 243 257 263 262 260 260 261 259 258 256 255 261 267 262 261 265 262 265 252 253 256 241
197 204 214 220 229 238 243 232 219 233 240 242 238 248 256 251 256 258 261 261 255 246 237 249 257 235 244 269 279 272 267 270 274 274 272 270 265 264 263 264 266 266 270 268 261 260 263 262 257 245 245 253 241 231
211 216 219 219 230 237 237 231 240 247 238 249 252 239 244 260 260 245 232 240 244 239 235 242 238 239 258 264 263 264 275 284 287 282 284 288 281 273 273 282 283 278 273 266 261 260 258 248 241 250 253 245 230 231